Simultaneous Nadir Overpasses (SNOs) Predictions

Prediction of SNOs between AQUA and METOP-B Satellite Orbit:

Table of predicted SNOs for the next 14.0 days since TLE Epoch: 5/10/2013
Index Date (AQUA) Time (AQUA) Lat,Lon (AQUA) SZA (AQUA ) Date (METOP-B) Time (METOP-B) Lat,Lon (METOP-B) SZA (METOP-B ) Distance(km) Time Diff (sec)
1 05/11/2013 23:15:03 73.74,-174.18 55.60 05/11/2013 23:14:40 73.74,-174.26 55.60 2.67 23
2 05/12/2013 00:04:30 -73.82, -6.70 124.34 05/12/2013 00:05:20 -73.83, -6.73 124.33 1.34 50
3 05/14/2013 17:59:40 -73.64, 84.88 125.20 05/14/2013 17:58:27 -73.56, 84.38 125.25 18.02 73
4 05/14/2013 18:49:10 73.78,-107.79 54.95 05/14/2013 18:49:03 73.76,-107.83 54.93 3.07 7
5 05/14/2013 19:38:37 -73.85, 59.69 124.99 05/14/2013 19:39:43 -73.84, 59.70 125.01 1.66 66
6 05/17/2013 13:33:48 -73.70, 151.22 125.78 05/17/2013 13:32:48 -73.71, 151.14 125.76 2.83 60
7 05/17/2013 14:23:17 73.79, -41.35 54.32 05/17/2013 14:23:26 73.81, -41.29 54.33 2.97 9
8 05/17/2013 15:12:50 -74.17, 125.44 125.30 05/17/2013 15:14:00 -74.19, 126.96 125.32 46.10 70
9 05/20/2013 09:07:55 -73.73,-142.39 126.35 05/20/2013 09:07:12 -73.71,-142.45 126.36 2.90 43
10 05/20/2013 09:57:24 73.83, 25.03 53.75 05/20/2013 09:57:50 73.82, 25.12 53.73 3.34 26
11 05/23/2013 04:42:00 -73.74, -75.94 126.89 05/23/2013 04:41:34 -73.76, -75.94 126.87 1.83 26
12 05/23/2013 05:31:28 73.79, 91.59 53.16 05/23/2013 05:32:13 73.81, 91.52 53.17 3.08 45




NCC Satellite Simultaneous Nadir Overpasses (SNOs) Prediction Service
